ANA752 RJNK-RJTT

Flight info

Callsign ANA752
Flight time 0h 55m
Altitude 31000
Route OHNNO1 OHNNO Y383 KCC Y295 GAKKI Y71 XAC XAC1B
Aircraft A320/M-SDE3FGHIRWY/LB1

Departure

Time 2026-05-04 07:35
Airport Komatsu Airport / JASDF Komatsu Air Base (RJNK)

Arrival

Time 2026-05-04 08:31
Airport Tokyo Haneda International Airport (RJTT)
Time Latitude Longitude Altitude Speed Heading
2026-05-04 07:24 36.40185 136.41497 26 ft 0 kts 326°
2026-05-04 07:28 36.40183 136.41498 29 ft 2 kts 326°
2026-05-04 07:28 36.40162 136.41516 27 ft 4 kts 329°
2026-05-04 07:28 36.40138 136.41532 28 ft 4 kts 337°
2026-05-04 07:29 36.40113 136.41541 29 ft 4 kts
2026-05-04 07:29 36.40094 136.41534 29 ft 1 kts 55°
2026-05-04 07:29 36.40091 136.41529 29 ft 1 kts 55°
2026-05-04 07:33 36.40133 136.41896 33 ft 0 kts 145°
2026-05-04 07:34 36.40132 136.41897 33 ft 1 kts 145°
2026-05-04 07:34 36.40068 136.41929 33 ft 12 kts 182°
2026-05-04 07:34 36.40009 136.41861 33 ft 13 kts 234°
2026-05-04 07:35 36.39903 136.41670 33 ft 57 kts 236°
2026-05-04 07:35 36.39553 136.41038 34 ft 118 kts 236°
2026-05-04 07:35 36.39020 136.40027 174 ft 153 kts 240°
2026-05-04 07:35 36.38407 136.38923 788 ft 156 kts 235°
2026-05-04 07:36 36.37987 136.38193 1266 ft 158 kts 240°
2026-05-04 07:36 36.37340 136.37078 1889 ft 167 kts 239°
2026-05-04 07:38 36.29021 136.28484 6734 ft 290 kts 156°
2026-05-04 07:38 36.27525 136.30214 7547 ft 304 kts 122°
2026-05-04 07:38 36.26971 136.31821 8121 ft 309 kts 108°
2026-05-04 07:38 36.25787 136.35017 9209 ft 310 kts 132°
2026-05-04 07:39 36.24235 136.36857 9953 ft 310 kts 149°
2026-05-04 07:39 36.23027 136.37873 10397 ft 314 kts 154°
2026-05-04 07:39 36.21096 136.39244 10644 ft 335 kts 157°
2026-05-04 07:39 36.18968 136.40643 10821 ft 358 kts 157°
2026-05-04 07:40 36.16711 136.42153 10964 ft 378 kts 155°
2026-05-04 07:40 36.14387 136.43797 11391 ft 389 kts 154°
2026-05-04 07:40 36.12056 136.45539 12023 ft 394 kts 153°
2026-05-04 07:40 36.09721 136.47351 12666 ft 399 kts 152°
2026-05-04 07:41 36.06610 136.49815 13568 ft 403 kts 152°
2026-05-04 07:41 36.04240 136.51694 14171 ft 406 kts 153°
2026-05-04 07:41 36.02628 136.52965 14578 ft 408 kts 154°
2026-05-04 07:41 36.00227 136.54846 15205 ft 409 kts 155°
2026-05-04 07:42 35.97847 136.56695 15794 ft 411 kts 156°
2026-05-04 07:42 35.95422 136.58569 16406 ft 409 kts 158°
2026-05-04 07:42 35.93006 136.60434 17021 ft 410 kts 159°
2026-05-04 07:42 35.90580 136.62296 17677 ft 409 kts 161°
2026-05-04 07:43 35.88103 136.63875 18231 ft 396 kts 169°
2026-05-04 07:43 35.85538 136.65072 18580 ft 396 kts 172°
2026-05-04 07:43 35.82939 136.66236 18948 ft 398 kts 173°
2026-05-04 07:43 35.80329 136.67402 19271 ft 400 kts 173°
2026-05-04 07:44 35.77734 136.68558 19619 ft 404 kts 173°
2026-05-04 07:44 35.75082 136.69744 19982 ft 408 kts 173°
2026-05-04 07:44 35.72409 136.70939 20317 ft 410 kts 173°
2026-05-04 07:44 35.69717 136.72144 20696 ft 414 kts 173°
2026-05-04 07:45 35.67000 136.73365 21066 ft 417 kts 173°
2026-05-04 07:45 35.64266 136.74597 21446 ft 420 kts 173°
2026-05-04 07:45 35.61511 136.75844 21842 ft 423 kts 173°
2026-05-04 07:45 35.58747 136.77094 22225 ft 425 kts 173°
2026-05-04 07:46 35.55963 136.78346 22590 ft 427 kts 173°
2026-05-04 07:46 35.53164 136.79596 22806 ft 430 kts 173°
2026-05-04 07:46 35.50393 136.80836 23233 ft 429 kts 174°
2026-05-04 07:46 35.47586 136.82097 23617 ft 430 kts 174°
2026-05-04 07:47 35.44772 136.83358 23927 ft 431 kts 174°
2026-05-04 07:47 35.41950 136.84619 24208 ft 433 kts 174°
2026-05-04 07:47 35.39118 136.85886 24506 ft 434 kts 174°
2026-05-04 07:49 35.20632 137.00305 26382 ft 507 kts 142°
2026-05-04 07:49 35.18418 137.03657 26644 ft 508 kts 142°
2026-05-04 07:49 35.16181 137.06996 26909 ft 508 kts 143°
2026-05-04 07:50 35.13929 137.10306 27317 ft 505 kts 144°
2026-05-04 07:50 35.11680 137.13583 27686 ft 502 kts 144°
2026-05-04 07:50 35.09442 137.16839 28159 ft 499 kts 144°
2026-05-04 07:50 35.07217 137.20080 28577 ft 497 kts 144°
2026-05-04 07:51 35.05004 137.23308 28998 ft 495 kts 144°
2026-05-04 07:51 35.02807 137.26538 29405 ft 494 kts 144°
2026-05-04 07:51 35.00658 137.29728 29787 ft 493 kts 144°
2026-05-04 07:51 34.98496 137.32959 30161 ft 491 kts 143°
2026-05-04 07:52 34.96343 137.36186 30493 ft 490 kts 143°
2026-05-04 07:52 34.94191 137.39400 30773 ft 489 kts 144°
2026-05-04 07:52 34.92040 137.42595 30874 ft 487 kts 144°
2026-05-04 07:52 34.89890 137.45776 30912 ft 487 kts 144°
2026-05-04 07:54 34.74394 137.73490 30879 ft 545 kts 112°
2026-05-04 07:55 34.73394 137.82755 30829 ft 555 kts 105°
2026-05-04 07:55 34.72523 137.92011 30805 ft 555 kts 106°
2026-05-04 07:56 34.71616 138.01326 30761 ft 556 kts 105°
2026-05-04 07:56 34.71462 138.10826 30668 ft 564 kts 97°
2026-05-04 07:57 34.71511 138.20322 30645 ft 561 kts 97°
2026-05-04 07:57 34.71543 138.29759 30726 ft 563 kts 97°
2026-05-04 07:58 34.71561 138.39273 30708 ft 563 kts 97°
2026-05-04 07:58 34.71583 138.48777 30695 ft 562 kts 97°
2026-05-04 07:59 34.71586 138.58282 30692 ft 562 kts 97°
2026-05-04 07:59 34.71575 138.67781 30063 ft 562 kts 97°
2026-05-04 08:00 34.71563 138.72510 28556 ft 574 kts 97°
2026-05-04 08:00 34.71546 138.77417 27166 ft 584 kts 97°
2026-05-04 08:00 34.71536 138.82337 26191 ft 582 kts 97°
2026-05-04 08:02 34.71445 139.14995 18506 ft 520 kts 97°
2026-05-04 08:02 34.71400 139.19398 17638 ft 521 kts 97°
2026-05-04 08:02 34.71355 139.23802 16819 ft 520 kts 97°
2026-05-04 08:03 34.71315 139.28188 16035 ft 518 kts 96°
2026-05-04 08:03 34.71279 139.32556 15272 ft 516 kts 96°
2026-05-04 08:03 34.71328 139.36907 14642 ft 514 kts 91°
2026-05-04 08:03 34.71921 139.41136 14378 ft 497 kts 79°
2026-05-04 08:04 34.73021 139.44994 14210 ft 470 kts 68°
2026-05-04 08:04 34.74457 139.48381 14092 ft 444 kts 62°
2026-05-04 08:04 34.75914 139.51575 13981 ft 421 kts 62°
2026-05-04 08:04 34.77296 139.54611 13860 ft 400 kts 62°
2026-05-04 08:05 34.78619 139.57514 13640 ft 386 kts 62°
2026-05-04 08:05 34.79914 139.60352 13200 ft 382 kts 62°
2026-05-04 08:05 34.81197 139.63169 12978 ft 378 kts 62°
2026-05-04 08:05 34.82503 139.65922 13000 ft 376 kts 54°
2026-05-04 08:06 34.84184 139.68330 13002 ft 372 kts 38°
2026-05-04 08:06 34.86230 139.70182 13032 ft 362 kts 21°
2026-05-04 08:06 34.88452 139.71397 13005 ft 347 kts
2026-05-04 08:06 34.90743 139.72314 13003 ft 347 kts
2026-05-04 08:08 35.05271 139.83489 13071 ft 372 kts 40°
2026-05-04 08:08 35.06983 139.85805 13063 ft 375 kts 55°
2026-05-04 08:10 35.02334 140.06256 13094 ft 337 kts 121°
2026-05-04 08:11 35.01770 140.09081 13094 ft 345 kts 114°
2026-05-04 08:11 35.00757 140.14798 13094 ft 344 kts 115°
2026-05-04 08:11 35.00255 140.17656 13111 ft 347 kts 111°
2026-05-04 08:12 35.00066 140.20639 13104 ft 360 kts 97°
2026-05-04 08:12 35.00285 140.23706 13115 ft 364 kts 92°
2026-05-04 08:12 35.00537 140.26733 13109 ft 364 kts 92°
2026-05-04 08:12 35.00791 140.29806 13109 ft 364 kts 92°
2026-05-04 08:13 35.01152 140.32872 13108 ft 369 kts 82°
2026-05-04 08:13 35.01982 140.35852 13109 ft 374 kts 67°
2026-05-04 08:13 35.03136 140.38698 13108 ft 375 kts 65°
2026-05-04 08:13 35.04483 140.41413 13108 ft 374 kts 46°
2026-05-04 08:14 35.06406 140.43466 13103 ft 362 kts 22°
2026-05-04 08:14 35.08656 140.44627 13109 ft 342 kts
2026-05-04 08:14 35.10957 140.44928 12798 ft 323 kts 341°
2026-05-04 08:16 35.21953 140.36709 10887 ft 252 kts 307°
2026-05-04 08:16 35.23338 140.35401 10629 ft 251 kts 307°
2026-05-04 08:16 35.24714 140.34102 10367 ft 248 kts 307°
2026-05-04 08:17 35.26075 140.32815 10122 ft 246 kts 307°
2026-05-04 08:17 35.27427 140.31533 9878 ft 245 kts 307°
2026-05-04 08:17 35.28757 140.30275 9638 ft 245 kts 307°
2026-05-04 08:17 35.30096 140.29011 9384 ft 242 kts 310°
2026-05-04 08:19 35.40095 140.21746 7529 ft 263 kts 345°
2026-05-04 08:19 35.41919 140.21568 7167 ft 262 kts 346°
2026-05-04 08:20 35.43735 140.21391 6823 ft 261 kts 346°
2026-05-04 08:20 35.45540 140.21213 6506 ft 259 kts 347°
2026-05-04 08:20 35.47334 140.21030 6146 ft 259 kts 348°
2026-05-04 08:20 35.49119 140.20846 5786 ft 256 kts 347°
2026-05-04 08:21 35.50865 140.20668 5440 ft 254 kts 347°
2026-05-04 08:21 35.52611 140.20488 5114 ft 250 kts 346°
2026-05-04 08:21 35.54262 140.20053 5016 ft 239 kts 335°
2026-05-04 08:21 35.55871 140.19483 5015 ft 242 kts 336°
2026-05-04 08:22 35.57464 140.18845 5008 ft 236 kts 327°
2026-05-04 08:22 35.58779 140.17723 5013 ft 228 kts 309°
2026-05-04 08:24 35.60521 140.06258 4748 ft 172 kts 272°
2026-05-04 08:24 35.60517 140.04794 4474 ft 170 kts 272°
2026-05-04 08:24 35.60512 140.03353 4237 ft 166 kts 272°
2026-05-04 08:24 35.60505 140.01970 3992 ft 158 kts 271°
2026-05-04 08:25 35.60499 140.00645 3754 ft 152 kts 271°
2026-05-04 08:25 35.60492 139.99392 3545 ft 146 kts 270°
2026-05-04 08:25 35.60487 139.98168 3339 ft 141 kts 270°
2026-05-04 08:25 35.60482 139.97007 3153 ft 131 kts 268°
2026-05-04 08:26 35.60476 139.95889 2966 ft 134 kts 270°
2026-05-04 08:27 35.60424 139.87180 1490 ft 130 kts 265°
2026-05-04 08:28 35.60416 139.86074 1305 ft 129 kts 265°
2026-05-04 08:28 35.60404 139.84988 1125 ft 126 kts 261°
2026-05-04 08:28 35.60291 139.83935 976 ft 124 kts 255°
2026-05-04 08:28 35.60070 139.82916 844 ft 123 kts 245°
2026-05-04 08:29 35.59731 139.81937 716 ft 127 kts 242°
2026-05-04 08:29 35.59297 139.80996 735 ft 125 kts 234°
2026-05-04 08:29 35.58844 139.80099 610 ft 123 kts 230°
2026-05-04 08:31 35.55634 139.76901 28 ft 14 kts 125°
2026-05-04 08:33 35.55849 139.77220 25 ft 11 kts 33°
2026-05-04 08:33 35.55908 139.77264 25 ft 10 kts 36°
2026-05-04 08:35 35.56194 139.77854 28 ft 21 kts 60°
2026-05-04 08:35 35.56263 139.78000 26 ft 19 kts 59°
2026-05-04 08:35 35.56317 139.78114 29 ft 0 kts 60°
2026-05-04 08:38 35.56322 139.78126 28 ft 6 kts 60°
2026-05-04 08:38 35.56339 139.78188 26 ft 8 kts 96°
2026-05-04 08:40 35.56113 139.78385 26 ft 0 kts 103°
2026-05-04 08:40 35.56115 139.78401 25 ft 4 kts 75°
2026-05-04 08:40 35.56127 139.78431 27 ft 5 kts 59°
2026-05-04 08:41 35.56143 139.78464 24 ft 5 kts 59°
2026-05-04 08:41 35.56149 139.78476 23 ft 2 kts 59°
2026-05-04 08:41 35.56149 139.78477 23 ft 0 kts 60°